[[{"header":{"parameterUnit":"m.s-1","parameterCategory":1,"la1":30.2991,"la2":30.254,"lo1":-89.0895,"lo2":-89.0444,"dy":0.0017,"dx":0.0017,"nx":28,"ny":28,"refTime":"2026-02-26T09:00:00:Z","depth":0,"parameterNumber":2,"parameterNumberName":"U-component_of_WINDS"},"data":[0,0,0,0,0,0,0,0,0,0,0,0,0,0,0,0,0,0,0,0,0,0,0,0,0,0,0,0,0,0,0,0,0,0,0,0,0,0,0,0,0,0,0,0,0,0,0,0,0,0,0,0,0,0,0,0,0,0,-0.0751,-0.0752,0,-0.0811,-0.0812,-0.0813,-0.0869,-0.087,-0.087,-0.0871,-0.0931,-0.0932,-0.0933,0,0,0,0,0,0,0,0,0,0,0,0,0,-0.0684,-0.0685,-0.0751,-0.0752,-0.0753,-0.0811,-0.0812,-0.0813,-0.0869,-0.087,-0.0871,-0.0871,-0.093,-0.0931,-0.0933,0,0,0,0,0,0,0,0,0,0,0,0,0,-0.0726,-0.0686,-0.0751,-0.0788,-0.0792,-0.0811,-0.0812,-0.0813,-0.0869,-0.087,-0.0871,-0.0872,-0.093,-0.0931,-0.0933,-0.092,0,0,-0.0937,-0.0938,0,0,0,0,0,0,0,0,-0.0723,-0.0728,-0.0782,-0.0785,-0.079,-0.0834,-0.081,-0.0849,-0.0868,-0.0839,-0.0871,-0.0872,-0.0897,-0.0902,-0.091,-0.0923,-0.0925,-0.0937,-0.0938,-0.0939,-0.0939,0,0,0,0,0,0,0,-0.072,-0.0726,-0.0775,-0.0783,-0.0787,-0.0801,-0.0808,-0.0818,-0.0862,-0.0842,-0.0846,-0.0853,-0.09,-0.0909,-0.0912,-0.0926,-0.0937,-0.0938,-0.0939,-0.094,-0.0931,-0.093,0,0,0,0,0,0,-0.0712,-0.0723,-0.0773,-0.0777,-0.0759,-0.0801,-0.0809,-0.0819,-0.0862,-0.0869,-0.0852,-0.0855,-0.0906,-0.0911,-0.0915,-0.0902,-0.0939,-0.094,-0.0941,-0.0932,-0.0931,-0.093,0,0,0,0,0,0,-0.071,-0.0716,-0.0771,-0.0751,-0.0759,-0.0801,-0.0811,-0.0819,-0.0828,-0.0869,-0.0877,-0.0853,-0.0907,-0.0913,-0.0918,-0.0905,-0.0941,-0.0942,-0.0933,-0.0932,-0.093,-0.0877,0,0,0,0,0,0,-0.0708,-0.0715,-0.0711,-0.0751,-0.076,-0.0774,-0.0811,-0.082,-0.0831,-0.0836,-0.0872,-0.088,-0.0908,-0.0916,-0.092,-0.0907,-0.0943,-0.0935,-0.0933,-0.0931,-0.088,-0.0873,-0.0868,0,0,0,0,0,-0.0706,-0.0693,-0.071,-0.0716,-0.0756,-0.0773,-0.0778,-0.0812,-0.083,-0.0825,-0.0852,-0.0878,-0.0906,-0.0916,-0.0921,-0.0909,-0.0936,-0.0933,-0.0931,-0.0882,-0.0875,-0.0868,0,0,0,0,0,0,-0.065,-0.0699,-0.0719,-0.0719,-0.0741,-0.0782,-0.0778,-0.0803,-0.082,-0.0824,-0.0865,-0.0873,-0.0874,-0.0892,-0.0902,-0.0899,-0.0925,-0.0923,-0.0886,-0.0879,-0.0873,-0.0868,-0.0944,0,0,0,0,0,-0.0638,-0.0648,-0.069,-0.0686,-0.0697,-0.0735,-0.0744,-0.0768,-0.0793,-0.0802,-0.0829,-0.0852,-0.0866,-0.0874,-0.0889,-0.0884,-0.0892,-0.0878,-0.0872,-0.0867,-0.0864,-0.0862,-0.0856,-0.0922,-0.0922,-0.0922,0,0,-0.0613,-0.0641,-0.0644,-0.0676,-0.0696,-0.0705,-0.0743,-0.0751,-0.0758,-0.0804,-0.081,-0.0831,-0.0859,-0.0859,-0.086,-0.0874,-0.0848,-0.0864,-0.0859,-0.086,-0.0859,-0.0853,-0.0847,-0.092,-0.092,-0.0921,0,0,-0.0571,-0.0594,-0.0592,-0.0612,-0.0643,-0.0669,-0.0668,-0.0706,-0.0721,-0.0729,-0.0763,-0.0772,-0.0795,-0.0814,-0.0826,-0.0792,-0.0817,-0.0796,-0.0764,-0.0762,-0.0756,-0.0752,-0.0739,-0.0733,-0.0794,-0.0793,-0.0793,0,-0.0535,-0.055,-0.0588,-0.0594,-0.0607,-0.065,-0.0648,-0.0666,-0.0699,-0.0706,-0.0722,-0.0752,-0.0774,-0.0778,-0.077,-0.0779,-0.0779,-0.0791,-0.0754,-0.075,-0.0747,-0.0734,-0.0729,-0.0791,-0.0791,-0.0791,-0.0791,0,-0.0505,-0.0515,-0.051,-0.0542,-0.0554,-0.0556,-0.0594,-0.0602,-0.0625,-0.0649,-0.0657,-0.0685,-0.0706,-0.0709,-0.0732,-0.0717,-0.0725,-0.0747,-0.0773,-0.0737,-0.0726,-0.0721,-0.0786,-0.0788,-0.0788,-0.0789,0,0,-0.0428,-0.0481,-0.0479,-0.0493,-0.053,-0.0539,-0.0543,-0.0564,-0.057,-0.0592,-0.0596,-0.0615,-0.0635,-0.0649,-0.0675,-0.0673,-0.0643,-0.0696,-0.0697,-0.0683,-0.0627,-0.0608,-0.0602,-0.0661,-0.066,-0.0659,-0.0624,0,-0.0391,-0.0401,-0.0436,-0.0435,-0.0444,-0.0486,-0.049,-0.0512,-0.0535,-0.0547,-0.0572,-0.0584,-0.0612,-0.062,-0.062,-0.0646,-0.0632,-0.065,-0.0663,-0.0663,-0.0653,-0.0597,-0.0578,-0.0543,-0.062,-0.0619,-0.0619,0,-0.0349,-0.0369,-0.0369,-0.0406,-0.0411,-0.0413,-0.0435,-0.0446,-0.0473,-0.049,-0.0506,-0.0534,-0.0541,-0.0567,-0.0576,-0.0587,-0.0595,-0.0609,-0.0609,-0.061,-0.0637,-0.0595,-0.0533,-0.0526,-0.0613,-0.0613,-0.0614,0,-0.0291,-0.0318,-0.0321,-0.0333,-0.0376,-0.0377,-0.0395,-0.0423,-0.0433,-0.0453,-0.046,-0.048,-0.049,-0.0505,-0.0538,-0.0555,-0.0543,-0.0572,-0.0556,-0.0555,-0.055,-0.055,-0.0487,-0.0558,-0.0558,-0.0559,-0.0559,0,-0.0245,-0.0243,-0.0296,-0.0297,-0.0297,-0.0337,-0.0335,-0.0357,-0.0381,-0.0388,-0.0426,-0.0431,-0.0476,-0.0486,-0.0513,-0.0515,-0.052,-0.0533,-0.054,-0.0529,-0.0527,-0.0533,-0.0536,-0.0557,-0.0558,-0.0558,-0.0558,0,-0.0179,-0.0215,-0.0221,-0.0262,-0.0272,-0.0269,-0.0304,-0.0307,-0.0333,-0.0341,-0.0345,-0.0385,-0.04,-0.0435,-0.0459,-0.0476,-0.0471,-0.0485,-0.0462,-0.0466,-0.0447,-0.0448,-0.0385,-0.0378,-0.0455,-0.0454,-0.0454,0,-0.0147,-0.0146,-0.0187,-0.0195,-0.0211,-0.0223,-0.0234,-0.0273,-0.0283,-0.0314,-0.0313,-0.0331,-0.0347,-0.0368,-0.0399,-0.0417,-0.043,-0.0407,-0.0433,-0.0421,-0.0428,-0.0427,-0.0426,-0.04,-0.0399,-0.0398,-0.0397,0,-0.0085,-0.0102,-0.0117,-0.0138,-0.015,-0.0168,-0.0188,-0.0192,-0.0237,-0.0246,-0.0261,-0.0274,-0.0298,-0.0314,-0.0338,-0.0356,-0.0383,-0.0389,-0.0386,-0.0374,-0.036,-0.0366,-0.0444,-0.039,-0.0391,-0.0391,-0.0392,-0.0392,-0.0034,-0.0035,-0.0064,-0.0079,-0.0099,-0.0117,-0.0121,-0.0148,-0.0162,-0.0184,-0.0208,-0.022,-0.0247,-0.0281,-0.0298,-0.0308,-0.0323,-0.0319,-0.0317,-0.0315,-0.0309,-0.036,-0.0313,-0.0313,-0.0313,-0.0314,-0.0314,0,0.0028,0.0007,-0.0007,-0.0034,-0.0046,-0.0072,-0.0096,-0.0104,-0.0114,-0.0138,-0.0153,-0.017,-0.0186,-0.0219,-0.0238,-0.024,-0.0253,-0.0244,-0.0243,-0.0247,-0.0296,-0.0296,-0.0233,-0.0233,-0.0233,-0.0233,-0.0233,-0.0233,0.0058,0.0055,0.0034,0.0021,-0.0,-0.0013,-0.0024,-0.0041,-0.006,-0.0077,-0.0091,-0.0113,-0.014,-0.0161,-0.0177,-0.0187,-0.0191,-0.0177,-0.019,-0.0236,-0.0243,-0.025,-0.025,-0.0178,-0.0178,-0.014,-0.0139,-0.0139]},{"header":{"parameterUnit":"m.s-1","parameterCategory":1,"la1":30.2991,"la2":30.254,"lo1":-89.0895,"lo2":-89.0444,"dy":0.0017,"dx":0.0017,"nx":28,"ny":28,"refTime":"2026-02-26T09:00:00:Z","depth":0,"parameterNumber":3,"parameterNumberName":"V-component_of_WINDS"},"data":[0,0,0,0,0,0,0,0,0,0,0,0,0,0,0,0,0,0,0,0,0,0,0,0,0,0,0,0,0,0,0,0,0,0,0,0,0,0,0,0,0,0,0,0,0,0,0,0,0,0,0,0,0,0,0,0,0,0,4.4632,4.4632,0,4.4626,4.4626,4.4625,4.4585,4.4584,4.4583,4.4582,4.4576,4.4577,4.4578,0,0,0,0,0,0,0,0,0,0,0,0,0,4.4608,4.4609,4.4632,4.4632,4.4631,4.4626,4.4626,4.4625,4.4585,4.4584,4.4583,4.4582,4.4576,4.4577,4.4578,0,0,0,0,0,0,0,0,0,0,0,0,0,4.4612,4.4609,4.4632,4.4611,4.4609,4.4626,4.4626,4.4625,4.4585,4.4584,4.4583,4.4581,4.4575,4.4577,4.4578,4.4614,0,0,4.4581,4.4582,0,0,0,0,0,0,0,0,4.4612,4.4613,4.4614,4.4612,4.461,4.4605,4.4615,4.4622,4.4586,4.4594,4.4582,4.458,4.4587,4.4587,4.4589,4.4614,4.4614,4.4581,4.4582,4.4582,4.4583,0,0,0,0,0,0,0,4.4612,4.4613,4.4629,4.4614,4.4612,4.4602,4.46,4.4616,4.4599,4.4593,4.4591,4.459,4.4585,4.4588,4.4589,4.4614,4.4581,4.4582,4.4583,4.4583,4.4669,4.467,0,0,0,0,0,0,4.4614,4.4613,4.4629,4.4629,4.4607,4.4603,4.4602,4.4608,4.4599,4.4596,4.4592,4.4589,4.4587,4.4587,4.4588,4.4631,4.4582,4.4583,4.4584,4.4667,4.4669,4.4671,0,0,0,0,0,0,4.4614,4.4616,4.463,4.462,4.4621,4.4605,4.4612,4.4608,4.4611,4.4597,4.4594,4.4597,4.4586,4.4587,4.4608,4.463,4.4584,4.4585,4.4665,4.4668,4.467,4.4716,0,0,0,0,0,0,4.4613,4.4616,4.463,4.4621,4.4622,4.465,4.4613,4.4609,4.4613,4.4609,4.4602,4.4599,4.4585,4.4607,4.4609,4.4631,4.4586,4.4663,4.4666,4.4669,4.4713,4.472,4.4726,0,0,0,0,0,4.4613,4.4643,4.4631,4.4633,4.4639,4.4651,4.4652,4.4634,4.4615,4.4629,4.462,4.4599,4.4627,4.4609,4.4612,4.4634,4.4662,4.4666,4.4669,4.471,4.4719,4.4726,0,0,0,0,0,0,4.4655,4.4641,4.4628,4.4656,4.4655,4.4644,4.4661,4.4644,4.4649,4.4645,4.4623,4.4621,4.4647,4.4642,4.4623,4.4669,4.4641,4.4645,4.4671,4.4679,4.4686,4.4687,4.4587,0,0,0,0,0,4.4668,4.4679,4.4667,4.4693,4.4693,4.4677,4.4682,4.4669,4.4667,4.4666,4.4659,4.4658,4.4666,4.4673,4.4679,4.4712,4.471,4.4728,4.4735,4.4741,4.4745,4.4762,4.4771,4.4683,4.4683,4.4683,0,0,4.4694,4.4688,4.4697,4.4701,4.4699,4.4711,4.4677,4.4692,4.4701,4.4668,4.4689,4.4683,4.4681,4.4708,4.472,4.4705,4.4769,4.4745,4.475,4.4751,4.4767,4.4775,4.4783,4.4685,4.4685,4.4684,0,0,4.4749,4.4745,4.4767,4.4765,4.4762,4.4751,4.4757,4.4749,4.4744,4.4764,4.474,4.475,4.4765,4.4765,4.4766,4.4821,4.4802,4.4824,4.4859,4.4876,4.4883,4.4889,4.4909,4.4917,4.4828,4.4828,4.4828,0,4.4782,4.48,4.478,4.4796,4.4799,4.477,4.4793,4.4792,4.4791,4.4794,4.4778,4.4796,4.4793,4.482,4.4833,4.4835,4.4841,4.4825,4.4884,4.489,4.4895,4.4914,4.4922,4.483,4.483,4.483,4.483,0,4.4841,4.4854,4.4872,4.4872,4.4877,4.4896,4.488,4.4887,4.4873,4.4864,4.4885,4.4879,4.4885,4.489,4.4877,4.4916,4.4907,4.4888,4.4859,4.4906,4.4924,4.4931,4.4834,4.4833,4.4832,4.4832,0,0,4.4922,4.4912,4.4919,4.4919,4.4914,4.4923,4.4941,4.4947,4.4954,4.4954,4.4969,4.4982,4.4964,4.4966,4.4952,4.4968,4.5012,4.4946,4.4946,4.4959,4.5056,4.5071,4.508,4.4999,4.5001,4.5002,4.5056,0,4.4975,4.5006,4.4989,4.5021,4.5033,4.5006,4.5021,4.502,4.5012,4.5021,4.5012,4.5023,4.4998,4.4999,4.5012,4.5004,4.5031,4.4999,4.5014,4.5014,4.5016,4.5089,4.5105,4.5157,4.5063,4.5064,4.5065,0,4.5041,4.5045,4.5079,4.5072,4.5076,4.5091,4.5095,4.5104,4.5101,4.5095,4.5097,4.5079,4.5097,4.5068,4.5092,4.507,4.5075,4.5072,4.5073,4.5075,4.5043,4.5093,4.5173,4.5181,4.5075,4.5074,4.5074,0,4.5099,4.5112,4.5134,4.5135,4.5127,4.5138,4.5135,4.5131,4.5136,4.5139,4.5142,4.5148,4.5151,4.5155,4.514,4.512,4.5166,4.5136,4.5162,4.5162,4.5173,4.5173,4.5256,4.5175,4.5175,4.5174,4.5174,0,4.516,4.5183,4.516,4.5174,4.5198,4.5178,4.5203,4.5197,4.5194,4.5206,4.5182,4.5194,4.5173,4.5183,4.517,4.5193,4.5194,4.5189,4.5186,4.5192,4.5193,4.5196,4.5192,4.5176,4.5176,4.5176,4.5175,0,4.5229,4.5215,4.5237,4.5228,4.5226,4.5244,4.5236,4.5249,4.5239,4.5255,4.5258,4.5243,4.5253,4.5238,4.5247,4.5239,4.5269,4.526,4.527,4.5268,4.5295,4.5293,4.5383,4.5394,4.5305,4.5306,4.5307,0,4.527,4.5286,4.5279,4.5285,4.5284,4.5295,4.5299,4.528,4.5286,4.5285,4.5298,4.5306,4.5312,4.533,4.5321,4.5327,4.5319,4.535,4.5319,4.5325,4.532,4.532,4.5322,4.5356,4.5357,4.5358,4.5359,0,4.5344,4.5336,4.5344,4.535,4.5356,4.5359,4.5361,4.5368,4.5347,4.5355,4.5366,4.537,4.538,4.5389,4.5393,4.539,4.5372,4.5368,4.5375,4.5382,4.5388,4.5386,4.5288,4.5367,4.5366,4.5365,4.5365,4.5364,4.5401,4.5414,4.5411,4.5421,4.542,4.5422,4.5434,4.5426,4.5434,4.544,4.5428,4.5442,4.5439,4.5443,4.5442,4.5453,4.5439,4.5449,4.5451,4.5454,4.5459,4.5385,4.5453,4.5453,4.5453,4.5453,4.5453,0,4.5475,4.5472,4.548,4.5484,4.5491,4.5473,4.5474,4.5481,4.5494,4.5493,4.5499,4.5512,4.552,4.5511,4.5518,4.5529,4.552,4.5531,4.5531,4.5531,4.547,4.5464,4.5538,4.5538,4.5538,4.5538,4.5538,4.5538,4.5514,4.5537,4.5529,4.5551,4.5547,4.5561,4.5563,4.5565,4.5564,4.5579,4.5586,4.558,4.5576,4.5582,4.559,4.5587,4.5591,4.5605,4.5599,4.5543,4.5535,4.5527,4.5521,4.5606,4.5606,4.5659,4.566,4.566]}]]